Regional Weather Roundup
Issued by NWS

Home | Current Version | Previous Version | Text Only | Print | Product List | Glossary Off
Versions: 1 2 3 4 5 6 7 8 9 10 11 12 13 14 15 16 17 18 19 20 21 22 23 24 25 26 27 28 29 30 31 32 33 34 35 36 37 38 39 40 41 42 43 44 45 46 47 48 49 50

279
ASUS43 KMPX 221301
RWRMN
WEATHER ROUNDUP FOR MINNESOTA
NATIONAL WEATHER SERVICE TWIN CITIES/CHANHASSEN MN
800 AM CDT TUE AUG 22 2017


NOTE: "FAIR" INDICATES FEW OR NO CLOUDS BELOW 12,000 FEET WITH NO
SIGNIFICANT WEATHER AND/OR OBSTRUCTIONS TO VISIBILITY. N/A MEANS
CURRENT SKY AND/OR WEATHER CONDITIONS ARE NOT AVAILABLE.

MNZ060>063-068>070-221400-
   Twin Cities Metro

CITY           SKY/WX    TMP DP  RH WIND       PRES   REMARKS
TWIN CITIES    SUNNY     61  54  77 NW13      30.01R
ST PAUL        SUNNY     61  56  83 NW10      30.01R
CRYSTAL        SUNNY     60  51  72 NW12      30.00R
BLAINE         SUNNY     61  57  88 NW14      30.01R
LAKEVILLE      SUNNY     59  55  88 NW9       30.01R
EDEN PRAIRIE   SUNNY     62  54  74 NW13      30.00R
SOUTH ST PAUL  SUNNY     62  55  79 NW8       30.00R
LAKE ELMO      FAIR      61  55  82 NW10      30.01R
$$
MNZ001>005-007-008-013>017-022>024-027-028-221400-
   Northwest Minnesota

CITY           SKY/WX    TMP DP  RH WIND       PRES   REMARKS
BEMIDJI        SUNNY     52  48  87 W12       30.00R
HALLOCK        PTSUNNY   54  48  82 W7        30.01R
ROSEAU         PTSUNNY   50  45  81 W9        29.97S
WARROAD        MOSUNNY   48  45  87 W6        29.96S
CROOKSTON      SUNNY     50  46  87 W6        30.05R
FOSSTON        SUNNY     48  48 100 NW8       30.03R
DETROIT LAKES  SUNNY     54  46  76 NW9       30.06R
MOORHEAD       SUNNY     54  48  82 NW9       30.07R
PARK RAPIDS    SUNNY     54  51  90 VRB6      30.02R
MAHNOMEN       FAIR      49  47  92 W7        30.04R
$$
MNZ006-009>011-018-025>026-221400-
   North Central Minnesota

CITY           SKY/WX    TMP DP  RH WIND       PRES   REMARKS
BAUDETTE       MOSUNNY   52  49  89 W12       29.93S
FLAG ISLAND    PTSUNNY   54  50  87 W9        29.91S
INTL FALLS     PTSUNNY   52  50  93 W7        29.91R
WASKISH        SUNNY     55  50  82 NW12G17   29.96R
BIG FORK       SUNNY     54  52  94 W6        29.94R
LONGVILLE      SUNNY     55  52  88 SW5       29.99R
GRAND RAPIDS   MOSUNNY   56  53  90 W8        29.98R
CRANE LAKE     CLOUDY    52  50  93 CALM      29.91R
ORR            PTSUNNY   52  48  87 CALM      29.89S
COOK           PTSUNNY   52  50  93 W6        29.92S
WALKER         FAIR      52  48  87 W9        29.99S
$$
MNZ012-019>021-037-221400-
   Northeast Minnesota

CITY           SKY/WX    TMP DP  RH WIND       PRES   REMARKS
DULUTH         CLOUDY    53  53 100 NW12      29.93R
ELY            SUNNY     54  52  94 W7        29.90S
HIBBING        SUNNY     53  50  89 W5        29.93S
EVELETH        SUNNY     55  50  82 W6        29.93F
DULUTH HARBOR  SUNNY     57  54  88 W12       29.94R
TWO HARBORS    SUNNY     57  54  88 NW3       29.89R
SILVER BAY     SUNNY     57  54  88 W3        29.87R
GRAND MARAIS     N/A     60  54  80 VRB6      29.82R
$$
MNZ029>031-032-039>041-046>048-054>057-064-221400-
   West Central Minnesota

CITY           SKY/WX    TMP DP  RH WIND       PRES   REMARKS
FERGUS FALLS   SUNNY     50  50 100 W3        30.08R
WHEATON        SUNNY     55  48  76 W7        30.11R
MORRIS         SUNNY     54  52  94 W7        30.08R
ALEXANDRIA     SUNNY     56  53  90 W6        30.08R
ELBOW LAKE     FAIR      51  50  98 W5        30.08R
WADENA         SUNNY     52  52 100 W7        30.04R
GLENWOOD       SUNNY     55  52  88 W8        30.08R
APPLETON       SUNNY     55  52  88 W6        30.10R
BENSON         SUNNY     54  52  94 CALM      30.11R
ORTONVILLE     SUNNY     57  48  72 MISG      30.10R
MADISON        SUNNY     55  55 100 W7        30.11R
WILLMAR        FAIR      55  54  94 W8        30.10R
$$
MNZ033>034-036-042>043-049>051-058-059-221400-
   Central Minnesota

CITY           SKY/WX    TMP DP  RH WIND       PRES   REMARKS
ST CLOUD       SUNNY     57  54  89 NW10      30.03R
SAUK CENTRE    FAIR      54  52  92 W3        30.06R
PAYNESVILLE    SUNNY     54  54  99 W7        30.07R
AITKIN         SUNNY     55  52  88 W5        29.98S
PINE RIVER     SUNNY     52  48  87 CALM      30.04R
BRAINERD       SUNNY     56  53  90 SW3       30.02R
STAPLES        SUNNY     52  52 100 W5        30.04R
LONG PRAIRIE   FAIR      54  50  87 SW7       30.06R
LITTLE FALLS   SUNNY     54  50  87 W6        30.03S
LITCHFIELD     SUNNY     59  55  88 W9        30.07R
BUFFALO        SUNNY     58  51  78 NW7       30.04R
MAPLE LAKE     SUNNY     58  54  85 NW8       30.05R
HUTCHINSON     SUNNY     57  55  94 W7        30.07R
$$
MNZ037-044-045-052-053-221400-
   East Central Minnesota

CITY           SKY/WX    TMP DP  RH WIND       PRES   REMARKS
PRINCETON      SUNNY     57  54  88 W7        30.02R
MORA           SUNNY     55  52  88 NW7       30.01R
CAMBRIDGE      SUNNY     61  55  82 NW6       30.01R
RUSH CITY      SUNNY     58  54  87 CALM      30.00R
MOOSE LAKE     SUNNY     54  52  94 NW5       29.96R
HINCKLEY       FAIR      57  54  88 NW7       29.99R
CLOQUET        SUNNY     55  52  88 W7        29.95S
MCGREGOR       SUNNY     54  52  94 W6        29.99R
$$
MNZ071>073-080-081-089-090-097-098-221400-
   Southwest Minnesota

CITY           SKY/WX    TMP DP  RH WIND       PRES   REMARKS
MONTEVIDEO     SUNNY     57  57 100 NW6       30.10R
GRANITE FALLS  SUNNY     55  54  94 W7        30.12R
CANBY          SUNNY     57  51  81 CALM      30.13R
MARSHALL       MOSUNNY   56  52  86 NW7       30.12R FOG
REDWOOD FALLS  SUNNY     56  52  86 NW10      30.09R
OLIVIA         SUNNY     54  52  94 NW9       30.08R
PIPESTONE      SUNNY     55  52  88 NW6       30.14R
WINDOM         SUNNY     57  52  82 NW9       30.10R
WORTHINGTON    SUNNY     56  51  84 NW9       30.13R
JACKSON        SUNNY     55  52  88 CALM      30.10R
TRACY          SUNNY     56  53  88 NW8       30.12R
SLAYTON        SUNNY     53  47  79 NW9       30.13R
$$
MNZ065>067-074>077-082>085-091>093-221400-
   South Central Minnesota

CITY           SKY/WX    TMP DP  RH WIND       PRES   REMARKS
MANKATO        SUNNY     58  55  90 NW10      30.05R
NEW ULM        SUNNY     57  54  88 NW10      30.07R
ST JAMES       SUNNY     55  54  94 W9        30.08R
FAIRMONT       SUNNY     58  54  86 NW10      30.08R
GLENCOE        SUNNY     59  57  93 W7        30.04R
FARIBAULT      SUNNY     61  55  82 NW7       30.02R
OWATONNA       SUNNY     59  57  94 NW7       30.03R
WASECA         SUNNY     59  55  88 NW8       30.05R
ALBERT LEA     SUNNY     63  61  94 NW9G16    30.03R
$$
MNZ078>079-086>088-094>096-221400-
   Southeast Minnesota

CITY           SKY/WX    TMP DP  RH WIND       PRES   REMARKS
ROCHESTER      CLOUDY    60  59  96 NW14      30.00R
RED WING       SUNNY     63  55  77 NW7       29.97R
STANTON        SUNNY     61  56  85 NW8       30.00R
DODGE CENTER   SUNNY     61  55  82 NW12      30.01R
WINONA         MOSUNNY   63  57  82 NW17      29.95R
AUSTIN         MOSUNNY   61  57  88 NW12      30.01R
PRESTON        MOSUNNY   60  58  90 NW12G17   29.99R
$$
ABBREVIATIONS USED IN REMARKS
   TC - TEMPERATURES IN CELSIUS
  WCI - WIND CHILL INDEX
   HX - HEAT INDEX
  VSB - VISIBILITY
$$




USA.gov is the U.S. government's official web portal to all federal, state and local government web resources and services.